Location: ??
(34.7252°N, 135.5457°E)
Time: 08:11:29
(UTC+00:00)

Meteor 1-18 Rocket - Pass Details

Date: 24 September 2020
Orbit: 838 x 908 km, 81.2° (Epoch: 28 October)

Event Time Altitude Azimuth Distance (km) Brightness Sun altitude
Rises 19:44:23 0° 189° (S) 3,376 7.1 -13.8°
Reaches altitude 10° 19:46:47 10° 191° (S) 2,443 6.4 -13.4°
Maximum altitude 19:52:19 80° 277° (W) 854 4.1 -12.2°
Drops below altitude 10° 19:57:54 10° 6° (N) 2,466 6.8 -11.1°
Sets 20:00:20 0° 7° (N) 3,411 7.5 -10.6°
